FW2402 Weather Reports


time (UTC)temp
C
wind
direction
speed
KPH
gust
KPH
rain 1hr
cm
rain 24hr
cm
rain mn
cm
humidity
%
barometer
mb
20260905171023 28 233 3.2 20.9 0.00 1.55 0.03 78 1013.4
20260905170523 28 225 12.9 30.6 0.00 1.55 0.03 78 1013.3
20260905170045 29 247 17.7 30.6 0.00 1.55 0.03 78 1013.3
20260905165519 31 238 4.8 14.5 0.00 1.55 0.03 76 1013.3
20260905165026 31 244 3.2 9.7 0.00 1.55 0.03 77 1013.3
20260905164553 31 0 1.6 12.9 0.00 1.55 0.03 80 1013.5
20260905164025 31 0 4.8 12.9 0.00 1.55 0.03 74 1013.5
20260905163528 31 247 8.0 12.9 0.00 1.55 0.03 78 1013.7
20260905163049 30 268 4.8 12.9 0.00 1.55 0.03 77 1013.7
20260905162523 30 272 1.6 12.9 0.00 1.55 0.03 77 1013.8
20260905162023 30 276 4.8 12.9 0.00 1.55 0.03 78 1013.9
20260905161600 31 251 6.4 17.7 0.00 1.55 0.03 76 1014.0
20260905161022 31 240 9.7 17.7 0.00 1.55 0.03 77 1014.0
20260905160524 30 249 9.7 14.5 0.00 1.55 0.03 78 1014.2
20260905160048 31 266 1.6 14.5 0.00 1.55 0.03 80 1014.2
20260905155528 30 247 8.0 14.5 0.00 1.55 0.03 79 1014.2
20260905155024 30 284 3.2 11.3 0.00 1.55 0.03 81 1014.3
20260905154546 30 248 1.6 16.1 0.00 1.55 0.03 79 1014.1
20260905154032 30 238 6.4 20.9 0.00 1.55 0.03 80 1014.3
20260905153525 30 265 4.8 20.9 0.00 1.55 0.03 77 1014.3
20260905153047 30 251 8.0 20.9 0.00 1.55 0.03 80 1014.1
20260905152523 30 236 6.4 17.7 0.00 1.55 0.03 80 1014.2
20260905152023 30 246 3.2 14.5 0.00 1.55 0.03 80 1014.1
20260905151544 30 0 4.8 14.5 0.00 1.55 0.03 85 1014.4
20260905151020 30 264 8.0 14.5 0.00 1.55 0.03 82 1014.5
20260905150523 30 248 3.2 11.3 0.00 1.55 0.03 83 1014.4
20260905150040 30 292 1.6 12.9 0.00 1.55 0.03 84 1014.4
20260905145525 30 250 6.4 17.7 0.00 1.55 0.03 84 1014.4
20260905145024 29 234 11.3 17.7 0.00 1.55 0.03 83 1014.4
20260905144541 29 267 8.0 16.1 0.00 1.55 0.03 84 1014.3
20260905144025 29 284 9.7 16.1 0.00 1.55 0.03 84 1014.3
20260905143524 29 255 3.2 12.9 0.00 1.55 0.03 87 1014.4
20260905143047 28 250 0.0 12.9 0.00 1.55 0.03 88 1014.4
20260905142522 29 242 3.2 12.9 0.00 1.55 0.03 89 1014.4
20260905142023 28 253 4.8 11.3 0.00 1.55 0.03 88 1014.4
20260905141542 28 243 3.2 9.7 0.00 1.55 0.03 89 1014.4
20260905141026 28 329 0.0 8.0 0.03 1.55 0.03 90 1014.5
20260905140523 28 245 1.6 8.0 0.03 1.55 0.03 90 1014.3
20260905140041 27 238 3.2 6.4 0.03 1.55 0.03 91 1014.4
20260905135525 27 257 3.2 6.4 0.03 1.55 0.03 93 1014.4
20260905135025 27 0 0.0 3.2 0.03 1.55 0.03 93 1014.4
20260905134544 27 0 0.0 3.2 0.03 1.55 0.03 95 1014.3
20260905134025 27 0 0.0 3.2 0.03 1.55 0.03 96 1014.3
20260905133522 26 0 0.0 6.4 0.03 1.55 0.03 96 1014.3
20260905133042 26 0 0.0 8.0 0.03 1.55 0.03 97 1014.4
20260905132523 26 104 1.6 8.0 0.03 1.55 0.03 97 1014.3
20260905132021 26 137 1.6 6.4 0.03 1.55 0.03 97 1014.3
20260905131540 25 0 1.6 6.4 0.03 1.55 0.03 97 1014.1
20260905131024 25 241 1.6 6.4 0.00 1.52 0.00 97 1014.2
20260905130524 25 0 0.0 1.6 0.00 1.52 0.00 97 1014.2
20260905130044 25 106 0.0 3.2 0.00 1.52 0.00 97 1014.2
20260905125526 25 0 0.0 3.2 0.00 1.52 0.00 97 1014.1
20260905125025 25 0 0.0 4.8 0.00 1.52 0.00 97 1014.2
20260905124542 25 0 0.0 6.4 0.00 1.52 0.00 97 1014.2
20260905124023 25 0 0.0 6.4 0.00 1.52 0.00 97 1014.2
20260905123520 25 0 0.0 4.8 0.00 1.52 0.00 97 1014.1
20260905123103 25 175 0.0 3.2 0.00 1.52 0.00 97 1014.1
20260905122525 24 0 0.0 3.2 0.00 1.52 0.00 97 1014.1
20260905122025 24 0 0.0 3.2 0.00 1.52 0.00 97 1014.0
20260905121553 24 0 0.0 0.0 0.00 1.52 0.00 97 1014.2
20260905121025 24 0 0.0 0.0 0.00 1.52 0.00 97 1014.1
20260905120524 24 0 0.0 0.0 0.00 1.52 0.00 97 1014.1
20260905120042 23 0 0.0 0.0 0.00 1.52 0.00 97 1014.0
20260905115526 23 0 0.0 0.0 0.00 1.52 0.00 97 1013.9
20260905115022 23 0 0.0 0.0 0.00 1.52 0.00 97 1013.8
20260905114542 23 0 0.0 0.0 0.00 1.52 0.00 97 1013.8
20260905114024 23 0 0.0 0.0 0.00 1.52 0.00 97 1013.8
20260905113525 23 0 0.0 0.0 0.00 1.52 0.00 97 1013.7
20260905113041 23 0 0.0 0.0 0.00 1.52 0.00 97 1013.6
20260905112525 23 0 0.0 0.0 0.00 1.52 0.00 97 1013.4
20260905112024 23 0 0.0 0.0 0.00 1.52 0.00 97 1013.5
20260905111543 23 0 0.0 0.0 0.00 1.52 0.00 97 1013.5
20260905111024 23 0 0.0 0.0 0.00 1.52 0.00 97 1013.6
20260905110523 23 0 0.0 0.0 0.00 1.52 0.00 97 1013.7
20260905110041 23 0 0.0 0.0 0.00 1.52 0.00 97 1013.6
20260905105518 23 0 0.0 0.0 0.00 1.52 0.00 97 1013.5
20260905105021 23 0 0.0 0.0 0.00 1.52 0.00 97 1013.3
20260905104544 23 0 0.0 0.0 0.00 1.52 0.00 97 1013.3
20260905104024 23 0 0.0 0.0 0.00 1.52 0.00 97 1013.3
20260905103527 23 0 0.0 3.2 0.00 1.52 0.00 97 1013.4
20260905103041 23 0 0.0 3.2 0.00 1.52 0.00 97 1013.4
20260905102525 23 116 0.0 3.2 0.00 1.52 0.00 97 1013.4
20260905102026 23 0 0.0 0.0 0.00 1.52 0.00 97 1013.3
20260905101557 23 0 0.0 0.0 0.00 1.52 0.00 97 1013.3
20260905101022 23 0 0.0 0.0 0.00 1.52 0.00 97 1013.3
20260905100523 23 0 0.0 0.0 0.00 1.52 0.00 97 1013.3
20260905100114 23 0 0.0 0.0 0.00 1.52 0.00 97 1013.2
20260905095526 23 0 0.0 0.0 0.00 1.52 0.00 97 1013.3
20260905095024 23 0 0.0 0.0 0.00 1.52 0.00 97 1013.2
20260905094548 23 0 0.0 0.0 0.00 1.52 0.00 97 1013.2
20260905094024 23 0 0.0 0.0 0.00 1.52 0.00 97 1013.1
20260905093525 23 0 0.0 0.0 0.00 1.52 0.00 97 1013.1
20260905093044 23 0 0.0 0.0 0.00 1.52 0.00 97 1013.1
20260905092526 23 0 0.0 0.0 0.00 1.52 0.00 97 1013.1
20260905092026 23 0 0.0 0.0 0.00 1.52 0.00 97 1013.1
20260905091554 23 0 0.0 0.0 0.00 1.52 0.00 97 1013.0
20260905091021 23 0 0.0 0.0 0.00 1.52 0.00 97 1013.0
20260905090525 23 0 0.0 0.0 0.00 1.52 0.00 97 1013.0
20260905090040 23 0 0.0 0.0 0.00 1.52 0.00 97 1013.0
20260905085527 23 0 0.0 0.0 0.00 1.52 0.00 97 1013.0
20260905085025 23 0 0.0 0.0 0.00 1.52 0.00 97 1012.9
20260905084549 23 0 0.0 0.0 0.00 1.52 0.00 97 1012.8
20260905084024 23 0 0.0 0.0 0.00 1.52 0.00 97 1012.8
20260905083520 23 0 0.0 0.0 0.00 1.52 0.00 97 1012.8
20260905083103 23 0 0.0 0.0 0.00 1.52 0.00 97 1012.8
20260905082523 23 0 0.0 0.0 0.00 1.52 0.00 97 1012.9
20260905082021 23 0 0.0 0.0 0.00 1.52 0.00 97 1012.9
20260905081541 23 0 0.0 0.0 0.00 1.52 0.00 97 1013.0
20260905081021 23 0 0.0 0.0 0.00 1.52 0.00 97 1013.0
20260905080527 23 0 0.0 0.0 0.00 1.52 0.00 97 1013.0
20260905080048 23 0 0.0 0.0 0.00 1.52 0.00 97 1013.0
20260905075523 23 0 0.0 0.0 0.00 1.52 0.00 97 1013.1
20260905075023 23 0 0.0 0.0 0.00 1.52 0.00 97 1013.0
20260905074547 23 0 0.0 0.0 0.00 1.52 0.00 97 1013.1
20260905074021 23 0 0.0 0.0 0.00 1.52 0.00 97 1013.0
20260905073523 23 0 0.0 0.0 0.00 1.52 0.00 97 1013.1
20260905073053 23 0 0.0 0.0 0.00 1.52 0.00 97 1013.0
20260905072523 23 0 0.0 0.0 0.00 1.52 0.00 97 1013.1
20260905072023 23 0 0.0 0.0 0.00 1.52 0.00 97 1013.1
20260905071543 23 0 0.0 0.0 0.00 1.52 0.00 97 1013.1
20260905071020 23 0 0.0 0.0 0.00 1.52 0.00 97 1013.0
20260905070527 23 0 0.0 0.0 0.00 1.52 0.00 97 1013.2
20260905070051 23 0 0.0 0.0 0.00 1.52 0.00 97 1013.3
20260905065525 23 0 0.0 0.0 0.00 1.52 0.00 97 1013.1
20260905065022 23 0 0.0 0.0 0.00 1.52 0.00 97 1013.3
20260905064607 23 0 0.0 0.0 0.00 1.52 0.00 97 1013.4
20260905064020 23 0 0.0 0.0 0.00 1.52 0.00 97 1013.4
20260905063528 23 0 0.0 0.0 0.00 1.52 0.00 97 1013.4
20260905063042 23 0 0.0 0.0 0.00 1.52 0.00 97 1013.4
20260905062519 23 0 0.0 0.0 0.00 1.52 0.00 97 1013.4
20260905062022 23 0 0.0 0.0 0.00 1.52 0.00 97 1013.5
20260905061545 23 0 0.0 0.0 0.00 1.52 0.00 97 1013.5
20260905061021 23 0 0.0 0.0 0.00 1.52 0.00 97 1013.5
20260905060524 23 0 0.0 0.0 0.00 1.52 0.00 97 1013.5
20260905060046 23 0 0.0 0.0 0.00 1.52 0.00 97 1013.6
20260905055522 23 0 0.0 0.0 0.00 1.52 0.00 97 1013.7
20260905055023 23 0 0.0 0.0 0.00 1.52 0.00 97 1013.7
20260905054620 23 0 0.0 0.0 0.00 1.52 0.00 97 1013.7
20260905054023 23 0 0.0 0.0 0.00 1.52 0.00 97 1013.8
20260905053523 24 0 0.0 0.0 0.00 1.52 0.00 97 1013.7
20260905053044 24 0 0.0 0.0 0.00 1.52 0.00 97 1013.8
20260905052523 23 0 0.0 0.0 0.00 1.52 0.00 97 1013.9
20260905052024 24 0 0.0 0.0 0.00 1.52 0.00 97 1013.9
20260905051542 24 0 0.0 0.0 0.00 1.52 0.00 97 1013.9
20260905051024 24 0 0.0 0.0 0.00 1.52 0.00 97 1014.0
20260905050527 24 0 0.0 0.0 0.00 1.52 0.00 97 1014.1
20260905050041 24 0 0.0 0.0 0.00 1.52 0.00 97 1014.2
20260905045528 24 0 0.0 0.0 0.00 1.52 0.00 97 1014.2
20260905045024 24 0 0.0 1.6 0.00 1.52 0.00 97 1014.3
20260905044545 24 0 0.0 1.6 0.00 1.52 0.00 97 1014.4
20260905044020 24 0 0.0 0.0 0.00 1.52 0.00 97 1014.4
20260905043523 24 0 0.0 0.0 0.00 1.52 0.00 97 1014.4
20260905043044 24 0 0.0 0.0 0.00 1.52 0.00 97 1014.4
20260905042519 24 0 0.0 0.0 0.00 1.52 0.00 97 1014.4
20260905042024 24 0 0.0 0.0 0.00 1.52 0.00 97 1014.4
20260905041540 24 0 0.0 0.0 0.00 1.52 0.00 97 1014.5
20260905041024 24 0 0.0 0.0 0.00 1.52 0.00 97 1014.5
20260905040528 24 0 0.0 3.2 0.00 1.52 0.00 97 1014.5
20260905040042 24 0 0.0 3.2 0.00 1.52 0.00 97 1014.5
20260905035523 24 153 1.6 3.2 0.00 1.52 1.52 97 1014.5
20260905035022 24 149 0.0 3.2 0.00 1.52 1.52 97 1014.5
20260905034549 24 0 0.0 6.4 0.00 1.52 1.52 97 1014.5
20260905034023 24 0 0.0 6.4 0.00 1.52 1.52 97 1014.6
20260905033523 24 167 0.0 4.8 0.00 1.52 1.52 97 1014.5
20260905033042 24 0 0.0 4.8 0.00 1.52 1.52 96 1014.6
20260905032519 24 146 0.0 8.0 0.00 1.52 1.52 97 1014.5
20260905032024 24 150 1.6 8.0 0.00 1.52 1.52 97 1014.6
20260905031550 24 166 3.2 8.0 0.00 1.52 1.52 97 1014.5
20260905031025 24 151 1.6 8.0 0.00 1.52 1.52 97 1014.6
20260905030525 24 172 1.6 6.4 0.00 1.52 1.52 96 1014.6
20260905030046 24 142 1.6 6.4 0.00 1.52 1.52 96 1014.5
20260905025525 24 137 3.2 6.4 0.00 1.52 1.52 96 1014.6
20260905025039 24 127 1.6 4.8 0.00 1.52 1.52 96 1014.6
20260905024554 24 0 0.0 4.8 0.00 1.52 1.52 97 1014.7
20260905024023 24 0 0.0 0.0 0.00 1.52 1.52 97 1014.8
20260905023518 24 0 0.0 0.0 0.00 1.52 1.52 96 1014.7
20260905023040 24 0 0.0 0.0 0.00 1.52 1.52 96 1014.7
20260905022524 24 0 0.0 0.0 0.00 1.52 1.52 96 1014.7
20260905022028 24 0 0.0 0.0 0.00 1.52 1.52 97 1014.7
20260905021549 24 0 0.0 0.0 0.00 1.52 1.52 96 1014.7
20260905021020 24 0 0.0 0.0 0.00 1.52 1.52 96 1014.6
20260905020527 24 0 0.0 0.0 0.00 1.52 1.52 96 1014.6
20260905020052 24 0 0.0 0.0 0.00 1.52 1.52 96 1014.7
20260905015523 24 0 0.0 0.0 0.00 1.55 1.52 96 1014.5
20260905015020 24 0 0.0 0.0 0.00 1.55 1.52 96 1014.6
20260905014543 24 0 0.0 0.0 0.00 1.55 1.52 96 1014.5
20260905014019 24 0 0.0 0.0 0.00 1.55 1.52 96 1014.4
20260905013526 24 0 0.0 0.0 0.00 1.55 1.52 96 1014.3
20260905013041 24 0 0.0 0.0 0.00 1.55 1.52 96 1014.3
20260905012526 24 0 0.0 0.0 0.00 1.55 1.52 96 1014.3
20260905012024 24 0 0.0 0.0 0.00 1.55 1.52 96 1014.2
20260905011552 24 0 0.0 0.0 0.00 1.55 1.52 96 1014.2
20260905011027 24 0 0.0 0.0 0.00 1.55 1.52 96 1014.3
20260905010525 24 0 0.0 3.2 0.00 1.55 1.52 96 1014.1
20260905010044 24 0 0.0 4.8 0.00 1.55 1.52 96 1014.1
20260905005523 24 49 1.6 4.8 0.00 1.75 1.52 96 1013.9
20260905005020 24 0 0.0 4.8 0.00 1.75 1.52 96 1014.0
20260905004544 24 105 1.6 4.8 0.00 1.75 1.52 96 1014.0
20260905004018 24 0 0.0 4.8 0.00 1.75 1.52 96 1014.0
20260905003528 24 105 1.6 3.2 0.00 1.75 1.52 96 1014.0
20260905003041 24 0 0.0 3.2 0.00 1.75 1.52 96 1013.9
20260905002522 24 181 0.0 1.6 0.00 1.75 1.52 96 1013.9
20260905002024 24 0 0.0 0.0 0.00 1.75 1.52 96 1013.8
20260905001544 24 0 0.0 0.0 0.00 1.75 1.52 96 1013.9
20260905001022 24 0 0.0 3.2 0.00 1.75 1.52 96 1013.9
20260905000526 24 0 0.0 3.2 0.00 1.75 1.52 96 1013.9
20260905000042 24 0 0.0 3.2 0.00 1.75 1.52 96 1014.1
20260904235522 24 0 0.0 8.0 0.00 2.74 1.52 96 1014.1
20260904235020 24 0 1.6 8.0 0.00 2.74 1.52 96 1014.2
20260904234541 24 158 1.6 6.4 0.00 2.74 1.52 96 1014.3
20260904234026 24 219 1.6 6.4 0.00 2.74 1.52 96 1014.3
20260904233524 25 0 0.0 3.2 0.00 2.74 1.52 96 1014.3
20260904233040 25 0 0.0 3.2 0.00 2.74 1.52 96 1014.2
20260904232524 25 0 0.0 1.6 0.00 2.74 1.52 96 1014.3
20260904232022 25 0 0.0 3.2 0.00 2.74 1.52 96 1014.3
20260904231601 25 0 0.0 3.2 0.00 2.74 1.52 96 1014.3
20260904231023 25 0 0.0 0.0 0.00 2.74 1.52 96 1014.2
20260904230523 25 0 0.0 0.0 0.00 2.74 1.52 96 1014.2
20260904230043 24 0 0.0 0.0 0.00 2.74 1.52 96 1014.3
20260904225519 24 0 0.0 0.0 0.00 2.74 1.52 96 1014.4
20260904225025 24 0 0.0 0.0 0.00 2.74 1.52 96 1014.5
20260904224541 24 0 0.0 6.4 0.03 2.74 1.52 96 1014.5
20260904224024 24 0 0.0 6.4 0.03 2.74 1.52 95 1014.3
20260904223524 24 0 0.0 3.2 0.03 2.74 1.52 95 1014.4
20260904223048 24 0 0.0 3.2 0.05 2.74 1.52 95 1014.0
20260904222526 23 70 1.6 3.2 0.10 2.74 1.52 95 1014.2
20260904222023 23 0 0.0 1.6 0.18 2.74 1.52 95 1014.0
20260904221547 23 0 0.0 3.2 0.20 2.74 1.52 95 1013.7
20260904221021 23 0 0.0 6.4 0.20 2.74 1.52 95 1013.1
20260904220523 23 266 0.0 6.4 0.20 2.74 1.52 95 1012.8
20260904220051 23 0 3.2 6.4 0.23 2.74 1.52 95 1012.9
20260904215518 23 284 1.6 11.3 0.23 2.74 1.52 95 1012.7
20260904215027 23 276 3.2 14.5 0.25 2.74 1.52 95 1012.9
20260904214548 24 266 8.0 14.5 0.46 2.72 1.47 95 1013.3
20260904214021 24 0 0.0 3.2 0.51 2.72 1.47 95 1013.5
20260904213527 24 0 0.0 4.8 0.48 2.67 1.47 95 1013.5
20260904213048 24 288 1.6 4.8 0.53 2.67 1.47 95 1013.7
20260904212524 24 0 0.0 3.2 0.51 2.64 1.42 95 1013.6
20260904212021 24 267 0.0 6.4 0.99 2.54 1.32 95 1013.8
20260904211544 24 0 0.0 17.7 1.07 2.54 1.32 95 1013.9
20260904211020 24 250 8.0 17.7 1.14 2.54 1.32 95 1014.0
20260904210520 25 259 4.8 12.9 1.14 2.54 1.32 95 1013.9
20260904210054 24 111 3.2 16.1 1.14 2.51 1.30 94 1013.8
20260904205524 24 126 4.8 16.1 1.14 2.51 1.30 94 1013.8
20260904205025 24 122 9.7 16.1 1.09 2.46 1.24 94 1013.9
20260904204548 25 96 4.8 9.7 0.91 2.24 1.02 94 1013.8
20260904204026 25 85 3.2 9.7 0.89 2.21 0.99 94 1013.8
20260904203525 25 74 1.6 12.9 0.91 2.21 0.99 93 1014.0
20260904203051 25 5 1.6 12.9 0.86 2.16 0.94 93 1013.8
20260904202522 25 36 4.8 14.5 0.79 2.08 0.86 92 1013.4
20260904202027 25 163 1.6 19.3 0.23 1.52 0.30 92 1013.5
20260904201544 25 153 8.0 19.3 0.15 1.45 0.23 91 1013.5
20260904201024 25 159 8.0 19.3 0.10 1.40 0.18 92 1013.1
20260904200524 25 159 3.2 19.3 0.10 1.40 0.18 90 1012.9
20260904200106 25 217 6.4 17.7 0.08 1.37 0.15 88 1013.4
20260904195523 26 189 6.4 17.7 0.08 1.37 0.15 88 1013.4
20260904195027 26 142 6.4 22.5 0.08 1.37 0.15 90 1013.3
20260904194545 27 246 6.4 22.5 0.03 1.32 0.10 88 1012.9
20260904194023 27 251 14.5 22.5 0.00 1.30 0.08 84 1013.1
20260904193526 28 267 8.0 16.1 0.00 1.30 0.08 83 1013.4
20260904193041 28 259 8.0 12.9 0.00 1.30 0.08 84 1013.5
20260904192523 29 265 6.4 16.1 0.00 1.30 0.08 84 1013.3
20260904192023 29 265 8.0 24.1 0.00 1.30 0.08 82 1013.2
20260904191547 29 280 14.5 24.1 0.00 1.30 0.08 81 1013.4
20260904191021 30 288 16.1 22.5 0.00 1.30 0.08 81 1013.4
20260904190524 30 284 14.5 22.5 0.00 1.30 0.08 78 1013.3
20260904190050 31 267 3.2 12.9 0.08 1.30 0.08 76 1013.4
20260904185525 31 253 4.8 12.9 0.08 1.30 0.08 73 1013.5
20260904185021 32 117 0.0 12.9 0.08 1.30 0.08 77 1013.5
20260904184542 31 265 3.2 9.7 0.08 1.30 0.08 78 1013.5
20260904184020 31 70 1.6 6.4 0.08 1.30 0.08 81 1013.6
20260904183519 31 0 3.2 6.4 0.08 1.30 0.08 82 1013.7
20260904183042 31 89 0.0 3.2 0.08 1.30 0.08 86 1014.0
20260904182535 30 0 0.0 0.0 0.08 1.30 0.08 89 1014.0
20260904182024 29 0 0.0 1.6 0.08 1.30 0.08 93 1014.1
20260904181549 28 0 0.0 6.4 0.08 1.30 0.08 90 1014.2
20260904181021 29 0 1.6 8.0 0.08 1.30 0.08 88 1014.3
20260904180524 29 78 1.6 8.0 0.08 1.30 0.08 88 1014.5
20260904180048 30 147 3.2 11.3 0.00 1.22 0.00 81 1014.4
20260904175520 30 110 3.2 11.3 0.00 1.22 0.00 77 1014.5
20260904175025 31 128 1.6 8.0 0.00 1.22 0.00 76 1014.5
20260904174542 31 0 1.6 9.7 0.00 1.22 0.00 78 1014.6
20260904174022 31 0 3.2 9.7 0.00 1.22 0.00 78 1014.7
20260904173525 31 162 3.2 11.3 0.00 1.22 0.00 75 1014.6
20260904173100 31 165 3.2 12.9 0.00 1.22 0.00 77 1014.8
20260904172524 30 165 4.8 12.9 0.00 1.22 0.00 79 1014.8
20260904172023 30 95 1.6 11.3 0.00 1.22 0.00 79 1014.9
20260904171546 31 0 3.2 11.3 0.00 1.22 0.00 81 1014.9